Find Starlink 4724

NORAD ID: 53702 Int'l Des: 2022-107 Owner: SPXS Country: US Constellation: starlink operational
LEOCIRCULAR

实时位置

正在加载3D地球...

关于 Starlink 4724

正在加载描述...

即将过境

Passes for default location (London). Set your location on the main map for personalized predictions.

高度历史

Loading altitude history...

两行轨道根数

1 53702U 22107C 26125.77405014 -.00000454 00000-0 -10426-4 0 9995
2 53702 53.2192 332.7610 0001750 90.3992 269.7201 15.08854096203714
Epoch: May 5, 2026 • Age: 9 hours

当前状态

高度 550.7 km
速度 7.59 km/s
星下点 -32.71°S, 96.99°W
发射日期 Sep 5, 2022
运行时间 3.6 years
类型 internet

技术详情

分类 Payload
质量 305.00 kg
干质量 290.00 kg
总质量 305.00 kg
长度 0.20 m
直径 2.80 m
跨度 9.00 m
形状 Box + pan
制造商 SPXS
平台类型 Starlink
阶段状态 In Orbit
所有者/国家 SPXS/US

Most Searched